Location: Cuzcurrita-R�o Tir�n
(42.5415°N, 2.9642°W)
Time: 19:46:40
(UTC+00:00)

YAOGAN 1 - Pass Details

Date: 27 February 2020
Orbit: 618 x 621 km, 97.9° (Epoch: 05 April)

Event Time Altitude Azimuth Distance (km) Brightness Sun altitude
Rises 19:19:41 0° 187° (S) 2,883 6.0 -15.7°
Reaches altitude 10° 19:22:01 10° 196° (SSW) 1,982 5.3 -16.2°
Maximum altitude 19:25:58 35° 262° (W) 1,002 4.3 -16.9°
Drops below altitude 10° 19:29:58 10° 330° (NNW) 1,997 5.6 -17.6°
Sets 19:32:20 0° 339° (NNW) 2,908 6.4 -18.1°
